This is the latest recevied weather packets stored in our database for station/object IK8TGH-3. If no packets are shown the sender has not sent any weather packets the latest 10 day(s).
| Time | Temp. | Humidity | Pressure | Rain* | Wind** | Luminosity | Snow |
|---|---|---|---|---|---|---|---|
| 1777740781 | 17.22° C | 38% | 1021.6 hPa | - | - | - | - |
| 1777739580 | 17.78° C | 39% | 1021.6 hPa | - | - | - | - |
| 1777738380 | 17.78° C | 40% | 1021.5 hPa | - | - | - | - |
| 1777737180 | 17.78° C | 41% | 1021.4 hPa | - | - | - | - |
| 1777735979 | 17.78° C | 41% | 1021.4 hPa | - | - | - | - |
| 1777734779 | 17.78° C | 41% | 1021.3 hPa | - | - | - | - |
| 1777733579 | 17.22° C | 41% | 1021.3 hPa | - | - | - | - |
| 1777732378 | 17.78° C | 41% | 1021.3 hPa | - | - | - | - |
| 1777731178 | 17.22° C | 42% | 1021.4 hPa | - | - | - | - |
| 1777729978 | 17.22° C | 37% | 1021.6 hPa | - | - | - | - |
| 1777728777 | 17.22° C | 41% | 1021.8 hPa | - | - | - | - |
| 1777727577 | 17.22° C | 40% | 1021.8 hPa | - | - | - | - |
| 1777726377 | 17.22° C | 40% | 1021.9 hPa | - | - | - | - |
| 1777725176 | 16.67° C | 40% | 1021.9 hPa | - | - | - | - |
| 1777723976 | 16.67° C | 38% | 1021.9 hPa | - | - | - | - |
| 1777722776 | 16.67° C | 38% | 1021.9 hPa | - | - | - | - |
| 1777721575 | 16.67° C | 36% | 1021.9 hPa | - | - | - | - |
| 1777720375 | 16.67° C | 34% | 1021.9 hPa | - | - | - | - |
| 1777719175 | 16.11° C | 34% | 1021.8 hPa | - | - | - | - |
| 1777717974 | 16.11° C | 34% | 1021.8 hPa | - | - | - | - |
| 1777716774 | 16.11° C | 34% | 1022.1 hPa | - | - | - | - |
| 1777715574 | 16.11° C | 35% | 1022 hPa | - | - | - | - |
| 1777714374 | 16.11° C | 35% | 1022 hPa | - | - | - | - |
| 1777713173 | 16.11° C | 37% | 1021.8 hPa | - | - | - | - |
| 1777711973 | 16.11° C | 38% | 1021.6 hPa | - | - | - | - |
* Rain since midnight (hover to see other rain measurements)
** Current wind speed in m/s (hover to see current wind gust speed)